Regional Weather Roundup
Issued by NWS Midland/Odessa, TX

Skip options and go directly to product.
Home | Oldest Version | Previous Version | Current Version | All | Text Only | Save Text | Print | Product List | Glossary Off

Skip product version selection by date and time.   

310
ASUS44 KMAF 260410
RWRMAF
MIDLAND AREA WEATHER ROUNDUP
NATIONAL WEATHER SERVICE MIDLAND TX
1000 PM CST TUE NOV 25 2014

...IN SOUTHWEST TEXAS AND SOUTHEAST NEW MEXICO...

CITY           SKY/WX    TMP DP  RH WIND       PRES   REMARKS
ALPINE         CLEAR     45   8  22 W16G24    30.30S WCI  38
ANDREWS        FAIR      46  11  23 W12G18    30.13R
ARTESIA        NOT AVBL
BIG SPRING     CLEAR     43  18  36 S9        30.15R WCI  38
CARLSBAD       CLEAR     51   9  18 W14       30.13F
DRYDEN           N/A     47  18  31 W6        30.21S
FORT STOCKTON  CLEAR     46  12  25 SW15      30.19F WCI  40
GUAD PASS      NOT AVBL
HOBBS          CLEAR     41  10  28 SW13      30.12F WCI  34
MARFA          PTCLDY    36   9  32 S7        30.30S WCI  30
MIDLAND AIRPK  FAIR      50  13  23 SW12      30.14S
MIDLAND INTL   CLEAR     49  13  23 SW15      30.13S
ODESSA         CLEAR     46  10  23 SW13      30.14S
PECOS          CLEAR     45  13  27 SW10      30.17F WCI  40
PRESIDIO       FAIR      43  17  35 NE3       30.30S
SEMINOLE       CLEAR     42  12  29 W12       30.12R WCI  36
SNYDER         CLEAR     38  22  51 S9        30.09F WCI  32
WINK           CLEAR     46  10  23 W10       30.14F
$$
...OTHER STATIONS IN TEXAS...

CITY           SKY/WX    TMP DP  RH WIND       PRES   REMARKS
ABILENE        CLEAR     45  24  43 S8        30.12F
AMARILLO       CLEAR     43  16  33 W9        29.99R WCI  38
AUSTIN         CLEAR     42  36  79 CALM      30.21F
BROWNSVILLE    CLEAR     47  43  86 CALM      30.30F
CORPUS CHRISTI CLEAR     48  42  80 S7        30.28S
DALLAS FTW     PTCLDY    45  29  53 S8        30.14R
DEL RIO        CLEAR     48  33  56 CALM      30.23F
EL PASO        PTCLDY    47   6  18 SW5       30.27F
HOUSTON INT    CLEAR     52  36  54 S7        30.24S
LUBBOCK        CLEAR     44  12  27 W12       30.04S WCI  38
SAN ANGELO     CLEAR     41  21  44 S9        30.16S WCI  35
SAN ANTONIO    CLEAR     54  32  43 W8        30.23F
WACO           CLEAR     37  33  85 SW8       30.17F WCI  31
WICHITA FALLS  NOT AVBL
$$
...OTHER LOCATIONS IN NEW MEXICO...

CITY           SKY/WX    TMP DP  RH WIND       PRES   REMARKS
ALAMAGORDO     PTCLDY    37   1  22 MISG      30.28S
ALBUQUERQUE    PTCLDY    41   6  23 NW9       30.29R WCI  35
CANNON AFB     CLEAR     46  10  22 NW20G26   30.07R WCI  39
CLOVIS         CLEAR     45   9  23 W21       30.05S WCI  36
HOLLOMAN AFB   PTCLDY    35   3  26 NE8       30.28R WCI  28
ROSWELL        CLEAR     43  12  28 S3        30.13R
RUIDOSO        PTCLDY    41   5  22 NW9       30.24R WCI  35
SANTA FE       PTCLDY    31   7  36 NW9       30.25R WCI  23
TRUTH OR CONSE CLEAR     43   1  17 SW10      30.27S WCI  37
TUCUMCARI      CLEAR     44  16  32 W15       30.04R WCI  37
$$

USA.gov is the U.S. government's official web portal to all federal, state and local government web resources and services.